27 juin 2022

Temps Code Temps Temp. Vue Base cloud Vent METAR/SPECI
4:50 pm
M
68 °F 6¼ mi+ 2.500 ft 330° 330° 5 kt METAR EDDS 271450Z AUTO 33005KT 300V010 9999 BKN025 OVC031 20/15 Q1019 TEMPO SHRA
4:20 pm
M
68 °F 6¼ mi+ 2.500 ft 320° 320° 7 kt METAR EDDS 271420Z AUTO 32007KT 290V350 9999 VCSH BKN025 OVC030 FEW///TCU 20/15 Q1019 TEMPO SHRA
3:50 pm
M
68 °F 6¼ mi+ 2.700 ft 340° 340° 6 kt METAR EDDS 271350Z AUTO 34006KT 300V010 9999 FEW020 OVC027 20/15 Q1019 NOSIG
3:20 pm
M
68 °F 6¼ mi+ 2.100 ft 340° 340° 7 kt METAR EDDS 271320Z AUTO 34007KT 320V020 9999 BKN021 OVC025 20/15 Q1019 NOSIG
2:50 pm
M
68 °F 6¼ mi+ 2.200 ft 340° 340° 9 kt METAR EDDS 271250Z AUTO 34009KT 9999 BKN022 OVC028 20/15 Q1018 NOSIG
2:20 pm
M
68 °F 6¼ mi+ 2.400 ft 340° 340° 6 kt METAR EDDS 271220Z AUTO 34006KT 290V030 9999 OVC024 20/16 Q1018 NOSIG
1:50 pm
M
68 °F 6¼ mi+ 2.000 ft 340° 340° 7 kt METAR EDDS 271150Z AUTO 34007KT 310V010 9999 BKN020 OVC025 20/16 Q1018 NOSIG
1:20 pm
M
68 °F 6¼ mi+ 2.400 ft 340° 340° 6 kt METAR EDDS 271120Z AUTO 34006KT 310V010 9999 FEW017 BKN024 OVC030 20/16 Q1018 NOSIG
12:50 pm
M
68 °F 6¼ mi+ 2.100 ft 330° 330° 8 kt METAR EDDS 271050Z AUTO 33008KT 280V350 9999 BKN021 20/16 Q1018 NOSIG
12:20 pm
M
68 °F 6¼ mi+ 1.800 ft 360° 360° 8 kt METAR EDDS 271020Z AUTO 36008KT 330V030 9999 BKN018 BKN024 OVC030 20/16 Q1017 NOSIG
11:50 am
M
70 °F 6¼ mi+ 1.900 ft 360° 360° 9 kt METAR EDDS 270950Z AUTO 36009KT 9999 BKN019 BKN024 21/16 Q1017
11:20 am
V
70 °F 6¼ mi+ - 060° 060° 5 kt METAR EDDS 270920Z AUTO 06005KT 020V090 9999 SCT017 21/16 Q1017 NOSIG
10:50 am
M
68 °F 6¼ mi+ 1.900 ft 010° 010° 4 kt METAR EDDS 270850Z AUTO 01004KT 330V110 9999 SCT015 BKN019 OVC025 20/16 Q1017 NOSIG
10:20 am
M
68 °F 6¼ mi+ 1.500 ft 030° 030° 5 kt METAR EDDS 270820Z AUTO 03005KT 310V060 9999 BKN015 20/16 Q1016 NOSIG
9:50 am
M
68 °F 6¼ mi+ 1.400 ft Var Var 2 kt METAR EDDS 270750Z AUTO VRB02KT 9999 BKN014 20/16 Q1016 NOSIG
9:20 am
M
68 °F 6¼ mi+ 1.300 ft Var Var 4 kt METAR EDDS 270720Z AUTO VRB04KT 9999 BKN013 20/16 Q1016 NOSIG
8:50 am
M
66 °F 6¼ mi+ 1.100 ft 300° 300° 6 kt METAR EDDS 270650Z AUTO 30006KT 270V360 9999 BKN011 19/16 Q1016 RESHRA
8:20 am
M
64 °F 6¼ mi+ 1.000 ft 290° 290° 6 kt METAR EDDS 270620Z AUTO 29006KT 260V320 9999 SHRA BKN010 FEW///CB 18/16 Q1016 NOSIG
7:50 am
V
64 °F 6¼ mi+ - Var Var 4 kt METAR EDDS 270550Z AUTO VRB04KT 9999 FEW010 18/16 Q1015 NOSIG
7:20 am
V
64 °F 6¼ mi+ - 190° 190° 3 kt METAR EDDS 270520Z AUTO 19003KT 120V240 CAVOK 18/16 Q1014 NOSIG
6:50 am
V
63 °F 6¼ mi+ - Var Var 2 kt METAR EDDS 270450Z AUTO VRB02KT CAVOK 17/15 Q1014 NOSIG
6:20 am
V
61 °F 6¼ mi+ - Var Var 3 kt METAR EDDS 270420Z AUTO VRB03KT 9999 FEW008 16/15 Q1014 RESHRA NOSIG
5:50 am
V
61 °F 6¼ mi+ - 240° 240° 5 kt METAR EDDS 270350Z AUTO 24005KT 9999 VCSH SCT007 FEW///CB 16/15 Q1015
5:20 am
V
61 °F 6¼ mi+ - 190° 190° 3 kt METAR EDDS 270320Z AUTO 19003KT 160V250 9999 FEW006 16/15 Q1014
4:50 am
V
61 °F 6¼ mi+ - 200° 200° 3 kt METAR EDDS 270250Z AUTO 20003KT 110V250 9999 FEW006 16/15 Q1014
4:20 am
I
61 °F 6¼ mi+ 600 ft Var Var 2 kt METAR EDDS 270220Z AUTO VRB02KT 9999 BKN006 16/15 Q1015
3:50 am
V
61 °F 6¼ mi+ - 010° 010° 7 kt METAR EDDS 270150Z AUTO 01007KT 330V040 9999 SCT007 16/16 Q1015 RESHRA
3:20 am
V
61 °F 6¼ mi+ - 040° 040° 11 kt METAR EDDS 270120Z AUTO 04011KT 360V080 9999 -SHRA VCTS SCT007 FEW///CB 16/16 Q1015 RETSRA
2:50 am
I
61 °F 2⅜ mi 4.700 ft 270° 270° 11 kt METAR EDDS 270050Z AUTO 27011KT 220V320 3800 +TSRA BR SCT013 BKN047 SCT///CB 16/16 Q1017
2:20 am
V
64 °F 6¼ mi+ - 300° 300° 16 kt METAR EDDS 270020Z AUTO 30016KT 9999 -RA FEW030 18/15 Q1014 RESHRA
1:50 am
V
66 °F 6¼ mi+ - 310° 310° 19 - 29 kt METAR EDDS 262350Z AUTO 31019G29KT 9999 SCT013 19/16 Q1013
1:20 am
V
66 °F 6¼ mi+ - 310° 310° 17 - 27 kt METAR EDDS 262320Z AUTO 31017G27KT 9999 -RA NSC 19/16 Q1013
12:50 am
V
72 °F 6¼ mi+ - 330° 330° 11 kt METAR EDDS 262250Z AUTO 33011KT CAVOK 22/15 Q1011
12:20 am
V
72 °F 6¼ mi+ - 310° 310° 9 kt METAR EDDS 262220Z AUTO 31009KT CAVOK 22/16 Q1012

26 juin 2022

Temps Code Temps Temp. Vue Base cloud Vent METAR/SPECI
11:50 pm
V
70 °F 6¼ mi+ - 300° 300° 4 kt METAR EDDS 262150Z AUTO 30004KT 280V060 CAVOK 21/16 Q1011
11:20 pm
V
70 °F 6¼ mi+ - 070° 070° 5 kt METAR EDDS 262120Z AUTO 07005KT CAVOK 21/16 Q1011
10:50 pm
V
70 °F 6¼ mi+ - 080° 080° 4 kt METAR EDDS 262050Z AUTO 08004KT CAVOK 21/16 Q1011
10:20 pm
V
73 °F 6¼ mi+ - Var Var 2 kt METAR EDDS 262020Z AUTO VRB02KT CAVOK 23/16 Q1012
9:50 pm
V
75 °F 6¼ mi+ - 360° 360° 3 kt METAR EDDS 261950Z AUTO 36003KT 310V060 CAVOK 24/15 Q1012 NOSIG
9:20 pm
V
77 °F 6¼ mi+ - 360° 360° 4 kt METAR EDDS 261920Z AUTO 36004KT 320V040 CAVOK 25/15 Q1012 NOSIG
8:50 pm
V
77 °F 6¼ mi+ - 340° 340° 5 kt METAR EDDS 261850Z AUTO 34005KT 310V020 CAVOK 25/15 Q1012 NOSIG
8:20 pm
V
79 °F 6¼ mi+ - 360° 360° 6 kt METAR EDDS 261820Z AUTO 36006KT 310V030 CAVOK 26/15 Q1012 NOSIG
7:50 pm
V
81 °F 6¼ mi+ - 350° 350° 7 kt METAR EDDS 261750Z AUTO 35007KT 330V040 CAVOK 27/15 Q1013 NOSIG
7:20 pm
V
82 °F 6¼ mi+ - 350° 350° 9 kt METAR EDDS 261720Z AUTO 35009KT CAVOK 28/15 Q1013 NOSIG
6:50 pm
V
82 °F 6¼ mi+ - 010° 010° 7 kt METAR EDDS 261650Z AUTO 01007KT 340V040 CAVOK 28/15 Q1013 NOSIG
6:20 pm
V
82 °F 6¼ mi+ - 360° 360° 7 kt METAR EDDS 261620Z AUTO 36007KT 320V050 CAVOK 28/15 Q1013 NOSIG
5:50 pm
V
81 °F 6¼ mi+ - 010° 010° 8 kt METAR EDDS 261550Z AUTO 01008KT 330V050 CAVOK 27/15 Q1013 NOSIG
5:20 pm
V
81 °F 6¼ mi+ - 350° 350° 7 kt METAR EDDS 261520Z AUTO 35007KT 250V040 CAVOK 27/15 Q1014 NOSIG
4:50 pm
V
81 °F 6¼ mi+ - 350° 350° 6 kt METAR EDDS 261450Z AUTO 35006KT 270V060 CAVOK 27/15 Q1014 NOSIG
4:20 pm
V
81 °F 6¼ mi+ - 360° 360° 8 kt METAR EDDS 261420Z AUTO 36008KT 310V040 CAVOK 27/14 Q1014 NOSIG
3:50 pm
V
81 °F 6¼ mi+ - 350° 350° 5 kt METAR EDDS 261350Z AUTO 35005KT 250V030 CAVOK 27/14 Q1014 NOSIG
3:20 pm
V
79 °F 6¼ mi+ - 350° 350° 6 kt METAR EDDS 261320Z AUTO 35006KT 260V050 CAVOK 26/13 Q1015 NOSIG
2:50 pm
V
79 °F 6¼ mi+ - 020° 020° 7 kt METAR EDDS 261250Z AUTO 02007KT 320V080 CAVOK 26/13 Q1015 NOSIG
2:20 pm
V
79 °F 6¼ mi+ - 350° 350° 7 kt METAR EDDS 261220Z AUTO 35007KT 300V090 CAVOK 26/13 Q1015 NOSIG
1:50 pm
V
79 °F 6¼ mi+ - 350° 350° 7 kt METAR EDDS 261150Z AUTO 35007KT 310V030 CAVOK 26/14 Q1015 NOSIG
1:20 pm
V
77 °F 6¼ mi+ - 350° 350° 4 kt METAR EDDS 261120Z AUTO 35004KT 310V080 CAVOK 25/14 Q1015 NOSIG
12:50 pm
V
75 °F 6¼ mi+ - Var Var 5 kt METAR EDDS 261050Z AUTO VRB05KT CAVOK 24/13 Q1016 NOSIG
12:20 pm
V
75 °F 6¼ mi+ - 360° 360° 5 - 15 kt METAR EDDS 261020Z AUTO 36005G15KT 310V070 CAVOK 24/14 Q1016 NOSIG
11:50 am
V
75 °F 6¼ mi+ - 040° 040° 5 kt METAR EDDS 260950Z AUTO 04005KT 340V120 CAVOK 24/14 Q1016 NOSIG
11:20 am
V
75 °F 6¼ mi+ - Var Var 4 kt METAR EDDS 260920Z AUTO VRB04KT CAVOK 24/15 Q1016 NOSIG
10:50 am
V
73 °F 6¼ mi+ - Var Var 4 kt METAR EDDS 260850Z AUTO VRB04KT CAVOK 23/14 Q1016 NOSIG
10:20 am
V
72 °F 6¼ mi+ - 030° 030° 4 kt METAR EDDS 260820Z AUTO 03004KT 310V090 CAVOK 22/14 Q1016 NOSIG
9:50 am
V
72 °F 6¼ mi+ - 110° 110° 3 kt METAR EDDS 260750Z AUTO 11003KT 030V160 CAVOK 22/15 Q1016 NOSIG
9:20 am
V
70 °F 6¼ mi+ - Var Var 3 kt METAR EDDS 260720Z AUTO VRB03KT CAVOK 21/14 Q1016 NOSIG
8:50 am
V
68 °F 6¼ mi+ - 080° 080° 3 kt METAR EDDS 260650Z AUTO 08003KT 030V110 CAVOK 20/15 Q1016 NOSIG
8:20 am
V
64 °F 6¼ mi+ - 030° 030° 3 kt METAR EDDS 260620Z AUTO 03003KT 350V060 CAVOK 18/15 Q1016 NOSIG
7:50 am
V
64 °F 6¼ mi+ - Var Var 1 kt METAR EDDS 260550Z AUTO VRB01KT CAVOK 18/16 Q1015 NOSIG
7:20 am
V
64 °F 6¼ mi+ - Var Var 2 kt METAR EDDS 260520Z AUTO VRB02KT CAVOK 18/15 Q1015 NOSIG
6:50 am
V
64 °F 6¼ mi+ - Var Var 2 kt METAR EDDS 260450Z AUTO VRB02KT CAVOK 18/15 Q1015 NOSIG
6:20 am
V
64 °F 6¼ mi+ - Var Var 2 kt METAR EDDS 260420Z AUTO VRB02KT CAVOK 18/15 Q1015 NOSIG
5:50 am
V
64 °F 6¼ mi+ - Var Var 2 kt METAR EDDS 260350Z AUTO VRB02KT CAVOK 18/14 Q1015
5:20 am
V
64 °F 6¼ mi+ - Var Var 1 kt METAR EDDS 260320Z AUTO VRB01KT CAVOK 18/14 Q1015
4:50 am
V
64 °F 6¼ mi+ - Var Var 2 kt METAR EDDS 260250Z AUTO VRB02KT CAVOK 18/14 Q1015
4:20 am
V
64 °F 6¼ mi+ - 210° 210° 4 kt METAR EDDS 260220Z AUTO 21004KT 130V270 CAVOK 18/14 Q1015
3:50 am
V
63 °F 6¼ mi+ - 110° 110° 4 kt METAR EDDS 260150Z AUTO 11004KT 020V190 9999 FEW046 17/14 Q1015
3:20 am
V
64 °F 6¼ mi+ - 270° 270° 8 kt METAR EDDS 260120Z AUTO 27008KT 230V300 CAVOK 18/14 Q1015
2:50 am
V
63 °F 6¼ mi+ - 240° 240° 6 kt METAR EDDS 260050Z AUTO 24006KT 180V300 CAVOK 17/14 Q1015
2:20 am
V
63 °F 6¼ mi+ - Var Var 1 kt METAR EDDS 260020Z AUTO VRB01KT CAVOK 17/14 Q1014
1:50 am
V
63 °F 6¼ mi+ - 290° 290° 1 kt METAR EDDS 252350Z AUTO 29001KT CAVOK 17/14 Q1014
1:20 am
V
63 °F 6¼ mi+ - 310° 310° 2 kt METAR EDDS 252320Z AUTO 31002KT CAVOK 17/13 Q1014
12:50 am
V
63 °F 6¼ mi+ - 290° 290° 3 kt METAR EDDS 252250Z AUTO 29003KT CAVOK 17/14 Q1014
12:20 am
V
64 °F 6¼ mi+ - 320° 320° 2 kt METAR EDDS 252220Z AUTO 32002KT CAVOK 18/13 Q1014

25 juin 2022

Temps Code Temps Temp. Vue Base cloud Vent METAR/SPECI
11:50 pm
V
66 °F 6¼ mi+ - Var Var 1 kt METAR EDDS 252150Z AUTO VRB01KT CAVOK 19/13 Q1013
11:20 pm
V
64 °F 6¼ mi+ - 090° 090° 3 kt METAR EDDS 252120Z AUTO 09003KT CAVOK 18/14 Q1013
10:50 pm
V
66 °F 6¼ mi+ - Var Var 2 kt METAR EDDS 252050Z AUTO VRB02KT CAVOK 19/14 Q1013
10:20 pm
V
68 °F 6¼ mi+ - Var Var 2 kt METAR EDDS 252020Z AUTO VRB02KT CAVOK 20/14 Q1013
9:50 pm
V
70 °F 6¼ mi+ - 090° 090° 3 kt METAR EDDS 251950Z AUTO 09003KT CAVOK 21/13 Q1013 NOSIG
9:20 pm
V
70 °F 6¼ mi+ - 130° 130° 3 kt METAR EDDS 251920Z AUTO 13003KT 060V190 CAVOK 21/14 Q1012 NOSIG
8:50 pm
V
72 °F 6¼ mi+ - 100° 100° 4 kt METAR EDDS 251850Z AUTO 10004KT CAVOK 22/15 Q1012 NOSIG
8:20 pm
V
73 °F 6¼ mi+ - 090° 090° 5 kt METAR EDDS 251820Z AUTO 09005KT CAVOK 23/14 Q1012 NOSIG
7:50 pm
V
77 °F 6¼ mi+ - 090° 090° 4 kt METAR EDDS 251750Z AUTO 09004KT 060V130 CAVOK 25/14 Q1012 NOSIG
7:20 pm
V
77 °F 6¼ mi+ - 120° 120° 4 kt METAR EDDS 251720Z AUTO 12004KT 070V180 CAVOK 25/14 Q1012 NOSIG
6:50 pm
V
77 °F 6¼ mi+ - 080° 080° 5 kt METAR EDDS 251650Z AUTO 08005KT 050V110 CAVOK 25/13 Q1012 NOSIG
6:20 pm
V
79 °F 6¼ mi+ - 090° 090° 4 kt METAR EDDS 251620Z AUTO 09004KT 040V190 CAVOK 26/13 Q1012 NOSIG
5:50 pm
V
79 °F 6¼ mi+ - 090° 090° 6 kt METAR EDDS 251550Z AUTO 09006KT 060V130 CAVOK 26/13 Q1012 NOSIG
5:20 pm
V
77 °F 6¼ mi+ - 080° 080° 5 kt METAR EDDS 251520Z AUTO 08005KT 040V110 CAVOK 25/13 Q1013 NOSIG
4:50 pm
V
79 °F 6¼ mi+ - 100° 100° 5 kt METAR EDDS 251450Z AUTO 10005KT 070V170 CAVOK 26/14 Q1013
Données plus anciennes

Télécharge notre application

Un accès facile à toute la météo aéronautique sur ton téléphone portable et ta tablette.
Avec de nombreuses fonctionnalités non disponibles sur le site Web, comme la prise en charge hors ligne et une liste personnelle d'aéroports.

Nous et des tiers suivons ton comportement sur Internet sur notre site Web à l'aide de cookies. Si tu continues, nous supposons que tu acceptes notre politique en matière de cookies. Apprendre plus